RYR2YD LIPE-LGTS

Flight info

Callsign RYR2YD
Flight time 1h 30m
Altitude 35000
Route LUMAV M859 CHI DCT AGOMO DCT LABIN DCT PUL DCT LOS DCT DOBAR DCT TALAS N130 ALIKO
Aircraft B738/M-SDE2E3FGHIRWXY/LB1

Departure

Time 2026-05-06 11:57
Airport Bologna Guglielmo Marconi Airport (LIPE)

Arrival

Time 2026-05-06 13:28
Airport Thessaloniki Macedonia International Airport (LGTS)
Time Latitude Longitude Altitude Speed Heading
2026-05-06 11:25 44.53384 11.28290 130 ft 0 kts 207°
2026-05-06 11:47 44.53388 11.28293 129 ft 3 kts 207°
2026-05-06 11:47 44.53412 11.28311 124 ft 4 kts 210°
2026-05-06 11:48 44.53435 11.28331 124 ft 4 kts 216°
2026-05-06 11:48 44.53455 11.28355 126 ft 4 kts 229°
2026-05-06 11:48 44.53468 11.28384 126 ft 4 kts 275°
2026-05-06 11:48 44.53467 11.28394 125 ft 0 kts 296°
2026-05-06 11:51 44.53467 11.28393 125 ft 0 kts 296°
2026-05-06 11:52 44.53468 11.28390 125 ft 0 kts 296°
2026-05-06 11:52 44.53472 11.28379 125 ft 3 kts 296°
2026-05-06 11:52 44.53486 11.28341 125 ft 7 kts 296°
2026-05-06 11:52 44.53538 11.28299 125 ft 10 kts 331°
2026-05-06 11:53 44.53579 11.28222 129 ft 10 kts 297°
2026-05-06 11:53 44.53623 11.28099 128 ft 18 kts 296°
2026-05-06 11:53 44.53679 11.27941 129 ft 18 kts 298°
2026-05-06 11:53 44.53735 11.27787 128 ft 17 kts 296°
2026-05-06 11:54 44.53789 11.27639 128 ft 17 kts 297°
2026-05-06 11:54 44.53841 11.27496 126 ft 16 kts 297°
2026-05-06 11:54 44.53892 11.27359 127 ft 16 kts 306°
2026-05-06 11:54 44.53976 11.27271 126 ft 15 kts 327°
2026-05-06 11:55 44.54066 11.27215 128 ft 14 kts 11°
2026-05-06 11:55 44.54110 11.27289 128 ft 7 kts 97°
2026-05-06 11:55 44.54103 11.27313 128 ft 0 kts 116°
2026-05-06 11:55 44.54103 11.27314 128 ft 0 kts 116°
2026-05-06 11:56 44.54088 11.27357 128 ft 25 kts 116°
2026-05-06 11:56 44.53895 11.27894 123 ft 97 kts 116°
2026-05-06 11:56 44.53495 11.29003 129 ft 156 kts 117°
2026-05-06 11:57 44.52971 11.30457 587 ft 173 kts 119°
2026-05-06 11:57 44.52599 11.32090 1266 ft 187 kts 91°
2026-05-06 11:57 44.53115 11.33815 1881 ft 203 kts 45°
2026-05-06 11:57 44.54350 11.34725 2652 ft 201 kts 15°
2026-05-06 11:58 44.55703 11.35322 3369 ft 209 kts 17°
2026-05-06 11:58 44.57115 11.36136 3818 ft 226 kts 23°
2026-05-06 11:58 44.58552 11.37117 4334 ft 233 kts 25°
2026-05-06 11:58 44.59986 11.38234 4827 ft 243 kts 32°
2026-05-06 11:59 44.61422 11.39714 5047 ft 266 kts 38°
2026-05-06 11:59 44.62902 11.41364 5486 ft 282 kts 38°
2026-05-06 11:59 44.64481 11.43131 6015 ft 295 kts 38°
2026-05-06 11:59 44.66097 11.44923 6795 ft 298 kts 38°
2026-05-06 12:00 44.67757 11.46748 7592 ft 301 kts 38°
2026-05-06 12:00 44.69419 11.48564 8363 ft 304 kts 38°
2026-05-06 12:00 44.71098 11.50393 9154 ft 307 kts 38°
2026-05-06 12:00 44.72800 11.52244 9913 ft 311 kts 38°
2026-05-06 12:01 44.74541 11.54136 10366 ft 326 kts 38°
2026-05-06 12:01 44.76364 11.56117 10545 ft 349 kts 38°
2026-05-06 12:01 44.78327 11.58251 10988 ft 362 kts 38°
2026-05-06 12:01 44.80302 11.60486 11625 ft 367 kts 44°
2026-05-06 12:02 44.82008 11.63167 12348 ft 369 kts 56°
2026-05-06 12:02 44.83344 11.66262 13067 ft 371 kts 63°
2026-05-06 12:02 44.84576 11.69476 13750 ft 375 kts 64°
2026-05-06 12:02 44.85810 11.72746 14342 ft 381 kts 64°
2026-05-06 12:03 44.87068 11.76051 14933 ft 385 kts 64°
2026-05-06 12:03 44.88355 11.79393 15529 ft 390 kts 63°
2026-05-06 12:03 44.89664 11.82765 16124 ft 395 kts 63°
2026-05-06 12:03 44.90991 11.86174 16694 ft 399 kts 63°
2026-05-06 12:04 44.92338 11.89640 17256 ft 405 kts 63°
2026-05-06 12:04 44.93694 11.93141 17838 ft 409 kts 63°
2026-05-06 12:04 44.95062 11.96687 18374 ft 414 kts 63°
2026-05-06 12:04 44.96444 12.00278 18905 ft 417 kts 63°
2026-05-06 12:05 44.97833 12.03890 19450 ft 420 kts 63°
2026-05-06 12:05 44.99230 12.07528 19966 ft 423 kts 63°
2026-05-06 12:05 45.00638 12.11197 20471 ft 427 kts 63°
2026-05-06 12:05 45.02057 12.14899 20976 ft 430 kts 63°
2026-05-06 12:06 45.03485 12.18629 21464 ft 433 kts 64°
2026-05-06 12:06 45.04924 12.22399 21956 ft 437 kts 65°
2026-05-06 12:06 45.06068 12.26372 22403 ft 436 kts 78°
2026-05-06 12:06 45.06599 12.30572 22884 ft 434 kts 90°
2026-05-06 12:07 45.06543 12.34812 23351 ft 429 kts 102°
2026-05-06 12:07 45.06114 12.38989 23786 ft 430 kts 104°
2026-05-06 12:07 45.05640 12.43176 24170 ft 433 kts 104°
2026-05-06 12:07 45.05160 12.47397 24533 ft 436 kts 104°
2026-05-06 12:08 45.04686 12.51709 24904 ft 440 kts 104°
2026-05-06 12:08 45.04233 12.55949 25261 ft 443 kts 103°
2026-05-06 12:08 45.03781 12.60273 25609 ft 446 kts 103°
2026-05-06 12:08 45.03323 12.64680 25960 ft 449 kts 103°
2026-05-06 12:09 45.02868 12.69067 26307 ft 452 kts 103°
2026-05-06 12:09 45.02408 12.73474 26641 ft 455 kts 103°
2026-05-06 12:09 45.01940 12.77915 26981 ft 458 kts 103°
2026-05-06 12:09 45.01467 12.82382 27303 ft 460 kts 103°
2026-05-06 12:10 45.00990 12.86860 27622 ft 463 kts 104°
2026-05-06 12:10 45.00506 12.91381 27928 ft 466 kts 104°
2026-05-06 12:10 45.00026 12.95860 28231 ft 469 kts 103°
2026-05-06 12:10 44.99535 13.00433 28535 ft 471 kts 103°
2026-05-06 12:11 44.99040 13.05023 28836 ft 474 kts 104°
2026-05-06 12:11 44.98534 13.09697 29126 ft 477 kts 104°
2026-05-06 12:11 44.98059 13.14020 29390 ft 479 kts 104°
2026-05-06 12:11 44.97542 13.18687 29659 ft 482 kts 104°
2026-05-06 12:12 44.97020 13.23370 29924 ft 484 kts 104°
2026-05-06 12:12 44.95514 13.36831 30855 ft 483 kts 104°
2026-05-06 12:13 44.94991 13.41494 31296 ft 479 kts 104°
2026-05-06 12:13 44.94469 13.46126 31675 ft 478 kts 104°
2026-05-06 12:13 44.93943 13.50754 31990 ft 477 kts 104°
2026-05-06 12:13 44.93416 13.55376 32307 ft 477 kts 104°
2026-05-06 12:14 44.92889 13.59991 32665 ft 475 kts 104°
2026-05-06 12:14 44.92363 13.64576 33033 ft 473 kts 105°
2026-05-06 12:14 44.91836 13.69149 33371 ft 472 kts 105°
2026-05-06 12:14 44.91309 13.73709 33665 ft 471 kts 105°
2026-05-06 12:15 44.90781 13.78266 33962 ft 470 kts 105°
2026-05-06 12:15 44.90253 13.82811 34204 ft 470 kts 105°
2026-05-06 12:15 44.89606 13.87303 34405 ft 464 kts 113°
2026-05-06 12:15 44.88442 13.91496 34609 ft 455 kts 123°
2026-05-06 12:16 44.86857 13.95304 34847 ft 447 kts 132°
2026-05-06 12:16 44.84896 13.98649 34966 ft 441 kts 139°
2026-05-06 12:16 44.80683 14.04962 34959 ft 442 kts 140°
2026-05-06 12:17 44.76492 14.11248 34953 ft 439 kts 140°
2026-05-06 12:17 44.72357 14.17522 34953 ft 436 kts 139°
2026-05-06 12:18 44.68242 14.23781 34958 ft 435 kts 139°
2026-05-06 12:18 44.64136 14.30015 34965 ft 435 kts 139°
2026-05-06 12:19 44.60019 14.36247 34963 ft 436 kts 139°
2026-05-06 12:19 44.55893 14.42484 34970 ft 437 kts 139°
2026-05-06 12:20 44.51834 14.48873 34958 ft 444 kts 132°
2026-05-06 12:20 44.48344 14.56068 34964 ft 448 kts 129°
2026-05-06 12:21 44.44918 14.63383 34969 ft 450 kts 129°
2026-05-06 12:21 44.41455 14.70685 34979 ft 451 kts 129°
2026-05-06 12:22 44.37948 14.77987 34971 ft 453 kts 130°
2026-05-06 12:22 44.34422 14.85278 34973 ft 453 kts 130°
2026-05-06 12:23 44.30884 14.92571 34978 ft 453 kts 129°
2026-05-06 12:23 44.27350 14.99840 34984 ft 453 kts 129°
2026-05-06 12:24 44.23814 15.07097 34984 ft 452 kts 129°
2026-05-06 12:24 44.20281 15.14329 34984 ft 451 kts 129°
2026-05-06 12:25 44.16746 15.21547 34993 ft 450 kts 129°
2026-05-06 12:25 44.13213 15.28742 34988 ft 450 kts 129°
2026-05-06 12:26 44.09679 15.35923 34992 ft 449 kts 129°
2026-05-06 12:26 44.06145 15.43085 34995 ft 449 kts 129°
2026-05-06 12:27 44.02582 15.50289 34987 ft 449 kts 129°
2026-05-06 12:27 43.99038 15.57436 34992 ft 449 kts 129°
2026-05-06 12:28 43.95487 15.64579 34983 ft 450 kts 129°
2026-05-06 12:28 43.91948 15.71681 34981 ft 450 kts 129°
2026-05-06 12:29 43.88382 15.78821 34987 ft 451 kts 129°
2026-05-06 12:29 43.84800 15.85974 34988 ft 452 kts 129°
2026-05-06 12:30 43.81192 15.93162 34988 ft 452 kts 129°
2026-05-06 12:30 43.77618 16.00265 34990 ft 452 kts 129°
2026-05-06 12:31 43.73998 16.07444 35001 ft 452 kts 129°
2026-05-06 12:31 43.70395 16.14571 35005 ft 452 kts 129°
2026-05-06 12:32 43.66792 16.21679 35027 ft 452 kts 129°
2026-05-06 12:32 43.63181 16.28785 35009 ft 452 kts 129°
2026-05-06 12:33 43.59570 16.35876 35028 ft 451 kts 129°
2026-05-06 12:33 43.55959 16.42949 35015 ft 451 kts 129°
2026-05-06 12:34 43.52345 16.50011 35017 ft 451 kts 129°
2026-05-06 12:34 43.48730 16.57057 35024 ft 450 kts 129°
2026-05-06 12:35 43.45117 16.64083 35043 ft 450 kts 129°
2026-05-06 12:35 43.41490 16.71120 35040 ft 450 kts 129°
2026-05-06 12:36 43.37865 16.78136 35047 ft 450 kts 129°
2026-05-06 12:36 43.34240 16.85135 35043 ft 449 kts 129°
2026-05-06 12:37 43.30612 16.92124 35042 ft 449 kts 129°
2026-05-06 12:37 43.26987 16.99089 35042 ft 449 kts 129°
2026-05-06 12:38 43.23354 17.06055 35041 ft 449 kts 129°
2026-05-06 12:38 43.19713 17.13018 35046 ft 450 kts 129°
2026-05-06 12:39 43.16059 17.19989 35048 ft 451 kts 129°
2026-05-06 12:39 43.12396 17.26963 35048 ft 452 kts 129°
2026-05-06 12:40 43.08718 17.33947 35054 ft 453 kts 129°
2026-05-06 12:40 43.05030 17.40936 35060 ft 454 kts 129°
2026-05-06 12:41 43.01325 17.47938 35051 ft 455 kts 129°
2026-05-06 12:41 42.97613 17.54939 35060 ft 455 kts 129°
2026-05-06 12:42 42.93890 17.61944 35057 ft 456 kts 129°
2026-05-06 12:42 42.90790 17.67764 35053 ft 456 kts 129°
2026-05-06 12:43 42.87058 17.74755 35063 ft 456 kts 129°
2026-05-06 12:43 42.83316 17.81749 35064 ft 456 kts 129°
2026-05-06 12:44 42.79577 17.88721 35072 ft 456 kts 129°
2026-05-06 12:44 42.75841 17.95671 35079 ft 457 kts 129°
2026-05-06 12:45 42.72078 18.02654 35081 ft 457 kts 129°
2026-05-06 12:46 42.66436 18.13094 35101 ft 456 kts 129°
2026-05-06 12:46 42.62673 18.20036 35102 ft 456 kts 129°
2026-05-06 12:47 42.58907 18.26969 35101 ft 456 kts 130°
2026-05-06 12:47 42.55141 18.33886 35103 ft 456 kts 130°
2026-05-06 12:48 42.51362 18.40809 35100 ft 456 kts 130°
2026-05-06 12:48 42.47585 18.47713 35100 ft 456 kts 130°
2026-05-06 12:49 42.43796 18.54623 35092 ft 457 kts 130°
2026-05-06 12:49 42.40008 18.61517 35109 ft 457 kts 130°
2026-05-06 12:50 42.36214 18.68406 35095 ft 456 kts 130°
2026-05-06 12:50 42.32419 18.75279 35108 ft 456 kts 130°
2026-05-06 12:51 42.28613 18.82157 35098 ft 457 kts 130°
2026-05-06 12:51 42.24808 18.89017 35095 ft 457 kts 130°
2026-05-06 12:52 42.20998 18.95872 35088 ft 457 kts 130°
2026-05-06 12:52 42.17168 19.02745 35086 ft 458 kts 130°
2026-05-06 12:53 42.13335 19.09609 35077 ft 459 kts 130°
2026-05-06 12:53 42.09490 19.16478 35084 ft 459 kts 130°
2026-05-06 12:54 42.05639 19.23345 35080 ft 460 kts 130°
2026-05-06 12:54 42.01776 19.30215 35071 ft 460 kts 130°
2026-05-06 12:55 41.97914 19.37069 35074 ft 460 kts 130°
2026-05-06 12:55 41.94042 19.43924 35079 ft 459 kts 130°
2026-05-06 12:56 41.90176 19.50753 35083 ft 459 kts 130°
2026-05-06 12:56 41.86310 19.57568 35079 ft 459 kts 130°
2026-05-06 12:57 41.82436 19.64379 35081 ft 459 kts 130°
2026-05-06 12:57 41.78563 19.71176 35084 ft 459 kts 130°
2026-05-06 12:58 41.74680 19.77974 35091 ft 460 kts 130°
2026-05-06 12:58 41.70788 19.84771 35090 ft 460 kts 130°
2026-05-06 12:59 41.66892 19.91562 35079 ft 460 kts 130°
2026-05-06 12:59 41.63000 19.98332 35094 ft 459 kts 130°
2026-05-06 13:00 41.59105 20.05089 35086 ft 459 kts 130°
2026-05-06 13:00 41.55204 20.11843 35087 ft 459 kts 130°
2026-05-06 13:01 41.51300 20.18587 35083 ft 459 kts 130°
2026-05-06 13:01 41.47393 20.25323 35086 ft 459 kts 130°
2026-05-06 13:02 41.43479 20.32056 35075 ft 459 kts 130°
2026-05-06 13:02 41.39565 20.38776 35081 ft 459 kts 130°
2026-05-06 13:03 41.35635 20.45523 34643 ft 466 kts 128°
2026-05-06 13:03 41.33922 20.49201 34126 ft 468 kts 118°
2026-05-06 13:03 41.32622 20.53173 33476 ft 470 kts 109°
2026-05-06 13:03 41.31778 20.57383 32852 ft 470 kts 103°
2026-05-06 13:04 41.31060 20.61623 32219 ft 470 kts 103°
2026-05-06 13:04 41.30362 20.65871 31595 ft 471 kts 103°
2026-05-06 13:04 41.29657 20.70122 30962 ft 472 kts 103°
2026-05-06 13:04 41.28940 20.74364 30525 ft 468 kts 103°
2026-05-06 13:05 41.28215 20.78575 30043 ft 465 kts 103°
2026-05-06 13:05 41.27488 20.82738 29517 ft 462 kts 103°
2026-05-06 13:05 41.26757 20.86886 29028 ft 458 kts 103°
2026-05-06 13:05 41.26030 20.90990 28542 ft 455 kts 103°
2026-05-06 13:06 41.25305 20.95068 28083 ft 451 kts 103°
2026-05-06 13:06 41.24585 20.99111 27598 ft 449 kts 103°
2026-05-06 13:06 41.23876 21.03088 27138 ft 446 kts 103°
2026-05-06 13:06 41.23161 21.07088 26657 ft 444 kts 103°
2026-05-06 13:07 41.22450 21.11062 26195 ft 441 kts 103°
2026-05-06 13:07 41.21740 21.15020 25744 ft 440 kts 103°
2026-05-06 13:07 41.21032 21.18962 25275 ft 438 kts 103°
2026-05-06 13:07 41.20325 21.22891 24813 ft 437 kts 103°
2026-05-06 13:08 41.19618 21.26811 24337 ft 436 kts 103°
2026-05-06 13:08 41.18911 21.30723 23869 ft 436 kts 102°
2026-05-06 13:08 41.18203 21.34631 23348 ft 436 kts 102°
2026-05-06 13:08 41.17493 21.38541 22845 ft 434 kts 102°
2026-05-06 13:09 41.16788 21.42415 22370 ft 431 kts 103°
2026-05-06 13:09 41.16086 21.46272 21904 ft 428 kts 103°
2026-05-06 13:09 41.15386 21.50102 21448 ft 426 kts 103°
2026-05-06 13:09 41.14690 21.53906 20980 ft 423 kts 103°
2026-05-06 13:10 41.13998 21.57681 20549 ft 421 kts 103°
2026-05-06 13:10 41.13305 21.61448 20097 ft 419 kts 103°
2026-05-06 13:10 41.12617 21.65189 19649 ft 416 kts 103°
2026-05-06 13:10 41.11931 21.68909 19208 ft 414 kts 103°
2026-05-06 13:11 41.11247 21.72612 18749 ft 413 kts 103°
2026-05-06 13:11 41.10564 21.76303 18306 ft 411 kts 103°
2026-05-06 13:11 41.09884 21.79970 17792 ft 409 kts 103°
2026-05-06 13:11 41.09206 21.83621 17335 ft 406 kts 103°
2026-05-06 13:12 41.08532 21.87240 16869 ft 403 kts 103°
2026-05-06 13:12 41.07687 21.90768 16417 ft 400 kts 112°
2026-05-06 13:12 41.06426 21.94028 15994 ft 396 kts 123°
2026-05-06 13:12 41.04822 21.96974 15579 ft 393 kts 127°
2026-05-06 13:13 41.03162 21.99842 15124 ft 390 kts 128°
2026-05-06 13:13 41.01511 22.02669 14723 ft 387 kts 128°
2026-05-06 13:13 40.99874 22.05483 14298 ft 385 kts 128°
2026-05-06 13:13 40.98252 22.08288 13870 ft 383 kts 127°
2026-05-06 13:14 40.96640 22.11089 13384 ft 382 kts 127°
2026-05-06 13:14 40.95042 22.13875 12932 ft 379 kts 127°
2026-05-06 13:14 40.93452 22.16649 12500 ft 377 kts 128°
2026-05-06 13:14 40.91877 22.19396 12079 ft 375 kts 128°
2026-05-06 13:15 40.90305 22.22137 11652 ft 372 kts 128°
2026-05-06 13:15 40.88743 22.24859 11229 ft 370 kts 128°
2026-05-06 13:15 40.87191 22.27563 10811 ft 369 kts 128°
2026-05-06 13:15 40.85647 22.30249 10485 ft 364 kts 128°
2026-05-06 13:16 40.84133 22.32880 10329 ft 355 kts 128°
2026-05-06 13:16 40.82664 22.35431 10165 ft 342 kts 128°
2026-05-06 13:16 40.81259 22.37870 10012 ft 326 kts 129°
2026-05-06 13:16 40.79925 22.40184 9983 ft 308 kts 129°
2026-05-06 13:17 40.78645 22.42400 9491 ft 306 kts 129°
2026-05-06 13:17 40.77365 22.44613 9117 ft 302 kts 129°
2026-05-06 13:17 40.76101 22.46802 8752 ft 297 kts 129°
2026-05-06 13:17 40.74859 22.48958 8427 ft 292 kts 129°
2026-05-06 13:18 40.73635 22.51080 8139 ft 291 kts 129°
2026-05-06 13:18 40.72407 22.53208 7841 ft 293 kts 129°
2026-05-06 13:18 40.71173 22.55347 7540 ft 294 kts 129°
2026-05-06 13:18 40.69931 22.57499 7240 ft 295 kts 129°
2026-05-06 13:19 40.68684 22.59654 6937 ft 297 kts 129°
2026-05-06 13:19 40.67435 22.61812 6708 ft 295 kts 129°
2026-05-06 13:19 40.66345 22.64006 6516 ft 294 kts 111°
2026-05-06 13:19 40.66195 22.66645 6393 ft 291 kts 77°
2026-05-06 13:20 40.67054 22.69003 6253 ft 285 kts 49°
2026-05-06 13:20 40.68477 22.70813 5991 ft 285 kts 43°
2026-05-06 13:20 40.69879 22.72653 5684 ft 282 kts 47°
2026-05-06 13:20 40.70161 22.73067 5614 ft 281 kts 49°
2026-05-06 13:21 40.71361 22.75067 5344 ft 276 kts 55°
2026-05-06 13:21 40.72402 22.77159 5068 ft 270 kts 59°
2026-05-06 13:21 40.73316 22.79296 4803 ft 265 kts 63°
2026-05-06 13:21 40.74125 22.81451 4567 ft 258 kts 66°
2026-05-06 13:22 40.74826 22.83569 4479 ft 246 kts 69°
2026-05-06 13:22 40.75433 22.85633 4306 ft 237 kts 72°
2026-05-06 13:22 40.75619 22.87747 3884 ft 234 kts 104°
2026-05-06 13:22 40.74817 22.89541 3468 ft 231 kts 144°
2026-05-06 13:23 40.73367 22.90360 3226 ft 226 kts 166°
2026-05-06 13:23 40.71839 22.90807 2901 ft 225 kts 168°
2026-05-06 13:23 40.70339 22.91246 2812 ft 216 kts 167°
2026-05-06 13:23 40.68932 22.91688 2698 ft 205 kts 167°
2026-05-06 13:24 40.67590 22.92115 2608 ft 191 kts 167°
2026-05-06 13:24 40.66326 22.92516 2586 ft 183 kts 166°
2026-05-06 13:24 40.65070 22.92916 2423 ft 187 kts 166°
2026-05-06 13:24 40.63846 22.93306 2198 ft 178 kts 166°
2026-05-06 13:25 40.62661 22.93685 1974 ft 169 kts 167°
2026-05-06 13:25 40.61917 22.93922 1810 ft 163 kts 166°
2026-05-06 13:25 40.60524 22.94367 1575 ft 150 kts 167°
2026-05-06 13:25 40.59511 22.94689 1358 ft 148 kts 167°
2026-05-06 13:26 40.58512 22.95010 1175 ft 148 kts 166°
2026-05-06 13:26 40.57504 22.95331 1007 ft 149 kts 167°
2026-05-06 13:26 40.56507 22.95654 868 ft 144 kts 166°
2026-05-06 13:26 40.55520 22.95998 571 ft 148 kts 168°
2026-05-06 13:27 40.54508 22.96312 415 ft 152 kts 168°
2026-05-06 13:27 40.53828 22.96517 254 ft 150 kts 169°
2026-05-06 13:27 40.52848 22.96822 41 ft 138 kts 167°
2026-05-06 13:27 40.52032 22.97079 28 ft 93 kts 166°
2026-05-06 13:28 40.51657 22.97200 29 ft 25 kts 166°
2026-05-06 13:28 40.51531 22.97263 29 ft 11 kts 125°
2026-05-06 13:28 40.51517 22.97359 28 ft 11 kts 78°
2026-05-06 13:28 40.51572 22.97404 28 ft 10 kts 349°
2026-05-06 13:29 40.51642 22.97384 28 ft 10 kts 346°
2026-05-06 13:29 40.51705 22.97363 28 ft 10 kts 346°
2026-05-06 13:29 40.51773 22.97342 28 ft 10 kts 346°
2026-05-06 13:29 40.51848 22.97318 27 ft 13 kts 346°
2026-05-06 13:30 40.51958 22.97282 27 ft 19 kts 346°
2026-05-06 13:30 40.52089 22.97241 27 ft 21 kts 347°
2026-05-06 13:30 40.52233 22.97196 27 ft 16 kts 346°
2026-05-06 13:30 40.52333 22.97165 27 ft 10 kts 348°
2026-05-06 13:31 40.52382 22.97213 27 ft 9 kts 69°
2026-05-06 13:31 40.52397 22.97287 28 ft 8 kts 78°
2026-05-06 13:31 40.52394 22.97358 27 ft 8 kts 118°
2026-05-06 13:31 40.52355 22.97414 27 ft 9 kts 134°
2026-05-06 13:32 40.52349 22.97463 27 ft 6 kts 59°
2026-05-06 13:32 40.52367 22.97488 27 ft 3 kts 44°
2026-05-06 13:32 40.52375 22.97499 27 ft 2 kts 44°
2026-05-06 13:32 40.52377 22.97502 27 ft 0 kts 44°